FW0475 Weather Reports


Display with metric or nautical units.
time (UTC)temp
F
wind
direction
speed
MPH
gust
MPH
rain 1hr
in
rain 24hr
in
rain mn
in
humidity
%
barometer
mb
20260503045822 44 150 1.0 4.0 0.00 0.00 0.00 65 1014.6
20260503045315 44 115 1.0 4.0 0.00 0.00 0.00 65 1014.6
20260503044849 44 143 1.0 4.0 0.00 0.00 0.00 65 1014.8
20260503044323 44 115 1.0 4.0 0.00 0.00 0.00 65 1014.8
20260503043831 44 81 1.0 3.0 0.00 0.00 0.00 65 1014.8
20260503043319 44 142 1.0 3.0 0.00 0.00 0.00 65 1014.8
20260503042836 44 145 1.0 3.0 0.00 0.00 0.00 64 1014.9
20260503042330 44 117 1.0 3.0 0.00 0.00 0.00 64 1015.0
20260503041839 44 151 1.0 4.0 0.00 0.00 0.00 65 1015.0
20260503041332 44 96 1.0 5.0 0.00 0.00 0.00 64 1015.0
20260503040825 44 168 1.0 5.0 0.00 0.00 0.00 64 1015.2
20260503040338 44 171 1.0 3.0 0.00 0.00 0.00 64 1015.2
20260503035835 44 180 1.0 2.0 0.00 0.00 0.00 65 1015.3
20260503035346 44 178 1.0 2.0 0.00 0.00 0.00 65 1015.3
20260503034841 44 178 0.0 5.0 0.00 0.00 0.00 65 1015.3
20260503034327 44 184 2.0 5.0 0.00 0.00 0.00 65 1015.4
20260503033823 44 217 1.0 3.0 0.00 0.00 0.00 65 1015.5
20260503033332 44 113 1.0 3.0 0.00 0.00 0.00 65 1015.6
20260503032826 44 128 2.0 3.0 0.00 0.00 0.00 65 1015.5
20260503032322 43 205 1.0 2.0 0.00 0.00 0.00 65 1015.6
20260503031831 43 212 0.0 2.0 0.00 0.00 0.00 66 1015.7
20260503031326 43 113 1.0 2.0 0.00 0.00 0.00 66 1015.6
20260503030836 43 227 0.0 2.0 0.00 0.00 0.00 66 1015.8
20260503030331 43 145 1.0 2.0 0.00 0.00 0.00 66 1015.9
20260503025836 43 153 1.0 3.0 0.00 0.00 0.00 66 1015.9
20260503025345 43 109 1.0 4.0 0.00 0.00 0.00 66 1016.0
20260503024820 43 108 1.0 4.0 0.00 0.00 0.00 67 1016.0
20260503024356 43 51 1.0 4.0 0.00 0.00 0.00 67 1016.0
20260503023827 43 92 0.0 2.0 0.00 0.00 0.00 67 1016.1
20260503023318 43 48 1.0 2.0 0.00 0.00 0.00 67 1016.2
20260503022833 43 166 1.0 3.0 0.00 0.00 0.00 67 1016.1
20260503022326 43 178 1.0 2.0 0.00 0.00 0.00 67 1016.2
20260503021824 43 194 1.0 3.0 0.00 0.00 0.00 67 1016.2
20260503021332 43 78 1.0 3.0 0.00 0.00 0.00 68 1016.2
20260503020826 43 17 1.0 2.0 0.00 0.00 0.00 68 1016.2
20260503020317 43 69 1.0 2.0 0.00 0.00 0.00 67 1016.3
20260503015849 43 186 0.0 2.0 0.00 0.00 0.00 68 1016.3
20260503015324 43 163 0.0 4.0 0.00 0.00 0.00 67 1016.3
20260503014820 43 190 1.0 4.0 0.00 0.00 0.00 67 1016.3
20260503014336 43 246 1.0 4.0 0.00 0.00 0.00 67 1016.3
20260503013827 43 70 1.0 5.0 0.00 0.00 0.00 67 1016.3
20260503013323 43 112 2.0 5.0 0.00 0.00 0.00 67 1016.4
20260503012819 42 195 0.0 2.0 0.00 0.00 0.00 67 1016.4
20260503012332 42 166 1.0 7.0 0.00 0.00 0.00 67 1016.5
20260503011822 42 171 1.0 7.0 0.00 0.00 0.00 68 1016.5
20260503011406 42 193 1.0 4.0 0.00 0.00 0.00 68 1016.5
20260503010849 42 215 2.0 5.0 0.00 0.00 0.00 67 1016.6
20260503010337 43 202 1.0 8.0 0.00 0.00 0.00 67 1016.5
20260503005823 43 242 3.0 8.0 0.00 0.00 0.00 67 1016.5
20260503005334 43 213 3.0 8.0 0.00 0.00 0.00 67 1016.5
20260503004828 43 205 2.0 8.0 0.00 0.00 0.00 67 1016.4
20260503004347 43 172 2.0 9.0 0.00 0.00 0.00 67 1016.5
20260503003822 43 205 2.0 9.0 0.00 0.00 0.00 66 1016.5
20260503003334 43 227 3.0 7.0 0.00 0.00 0.00 66 1016.6
20260503002823 44 171 3.0 8.0 0.00 0.00 0.00 65 1016.5
20260503002337 44 217 2.0 8.0 0.00 0.00 0.00 64 1016.6
20260503001844 44 232 2.0 7.0 0.00 0.00 0.00 62 1016.6
20260503001346 44 259 3.0 8.0 0.00 0.00 0.00 62 1016.7
20260503000850 44 224 3.0 8.0 0.00 0.00 0.00 62 1016.7
20260503000341 45 235 3.0 11.0 0.00 0.00 0.00 62 1016.8
20260502235816 44 210 3.0 11.0 0.00 0.00 0.00 61 1016.9
20260502235332 44 240 4.0 10.0 0.00 0.00 0.00 61 1016.9
20260502234827 44 193 3.0 12.0 0.00 0.00 0.00 63 1016.9
20260502234323 44 210 7.0 12.0 0.00 0.00 0.00 61 1017.0
20260502233835 44 241 6.0 10.0 0.00 0.00 0.00 62 1017.0
20260502233325 44 202 7.0 11.0 0.00 0.00 0.00 63 1017.0
20260502232817 44 238 6.0 11.0 0.00 0.00 0.00 62 1017.1
20260502232351 44 234 6.0 11.0 0.00 0.00 0.00 63 1017.1
20260502231847 44 238 6.0 11.0 0.00 0.00 0.00 62 1017.3
20260502231357 44 225 6.0 11.0 0.00 0.00 0.00 62 1017.3
20260502230823 44 210 6.0 10.0 0.00 0.00 0.00 61 1017.3
20260502230338 45 221 6.0 10.0 0.00 0.00 0.00 62 1017.4
20260502225845 44 215 5.0 10.0 0.00 0.00 0.00 61 1017.4
20260502225357 44 198 5.0 10.0 0.00 0.00 0.00 62 1017.4
20260502224821 45 219 7.0 10.0 0.00 0.00 0.00 62 1017.4
20260502224335 45 214 6.0 9.0 0.00 0.00 0.00 62 1017.5
20260502223827 45 231 6.0 10.0 0.00 0.00 0.00 62 1017.6
20260502223324 45 196 6.0 10.0 0.00 0.00 0.00 64 1017.6
20260502222819 45 206 6.0 9.0 0.00 0.00 0.00 63 1017.6
20260502222333 45 232 5.0 10.0 0.00 0.00 0.00 64 1017.7
20260502221818 45 221 6.0 10.0 0.00 0.00 0.00 64 1017.7
20260502221401 45 207 6.0 10.0 0.00 0.00 0.00 63 1017.7
20260502220830 45 227 6.0 9.0 0.00 0.00 0.00 62 1017.7
20260502220343 45 194 4.0 8.0 0.00 0.00 0.00 61 1017.7
20260502215828 45 205 4.0 9.0 0.00 0.00 0.00 64 1017.7
20260502215322 45 209 5.0 9.0 0.00 0.00 0.00 59 1017.7
20260502214850 45 232 4.0 8.0 0.00 0.00 0.00 63 1017.7
20260502214315 45 209 5.0 8.0 0.00 0.00 0.00 61 1017.7
20260502213830 45 237 6.0 8.0 0.00 0.00 0.00 61 1017.7
20260502213324 45 241 4.0 8.0 0.00 0.00 0.00 63 1017.7
20260502212840 45 243 3.0 9.0 0.00 0.00 0.00 62 1017.7
20260502212324 45 223 5.0 9.0 0.00 0.00 0.00 63 1017.8
20260502211813 45 218 6.0 8.0 0.00 0.00 0.00 61 1017.7
20260502211347 45 204 5.0 7.0 0.00 0.00 0.00 60 1017.8
20260502210850 45 219 4.0 8.0 0.00 0.00 0.00 60 1017.8
20260502210319 45 209 5.0 8.0 0.00 0.00 0.00 60 1017.9
20260502205831 45 210 5.0 7.0 0.00 0.00 0.00 59 1018.0
20260502205318 45 215 4.0 6.0 0.00 0.00 0.00 58 1018.0
20260502204848 45 219 4.0 6.0 0.00 0.00 0.00 57 1018.0
20260502204325 45 234 3.0 6.0 0.00 0.00 0.00 60 1018.0
20260502203833 45 217 4.0 6.0 0.00 0.00 0.00 63 1018.2
20260502203346 45 227 5.0 6.0 0.00 0.00 0.00 61 1018.2
20260502202829 45 213 4.0 6.0 0.00 0.00 0.00 62 1018.3
20260502202335 45 212 4.0 6.0 0.00 0.00 0.00 60 1018.4
20260502201828 46 263 4.0 6.0 0.00 0.00 0.00 59 1018.4
20260502201322 46 213 3.0 6.0 0.00 0.00 0.00 63 1018.4
20260502200839 46 234 3.0 6.0 0.00 0.00 0.00 62 1018.5
20260502200325 46 213 4.0 7.0 0.00 0.00 0.00 62 1018.7
20260502195838 46 250 4.0 7.0 0.00 0.00 0.00 62 1018.7
20260502195331 46 189 4.0 9.0 0.00 0.00 0.00 62 1018.8
20260502194823 46 191 4.0 9.0 0.00 0.00 0.00 62 1018.8
20260502194316 46 253 3.0 8.0 0.00 0.00 0.00 65 1018.9
20260502193825 45 249 5.0 8.0 0.00 0.00 0.00 62 1018.9
20260502193322 46 271 6.0 8.0 0.00 0.00 0.00 61 1019.0
20260502192817 46 261 5.0 8.0 0.00 0.00 0.00 64 1019.0
20260502192331 46 229 5.0 7.0 0.00 0.00 0.00 62 1019.0
20260502191847 46 269 4.0 7.0 0.00 0.00 0.00 64 1019.1
20260502191341 46 252 5.0 8.0 0.00 0.00 0.00 61 1019.1
20260502190836 46 251 4.0 8.0 0.00 0.00 0.00 63 1019.1
20260502190329 46 297 5.0 8.0 0.00 0.00 0.00 63 1019.2
20260502185834 45 290 6.0 8.0 0.00 0.00 0.00 60 1019.1
20260502185340 45 252 5.0 8.0 0.00 0.00 0.00 62 1019.2
20260502184850 45 281 5.0 8.0 0.00 0.00 0.00 61 1019.3
20260502184344 46 271 5.0 8.0 0.00 0.00 0.00 62 1019.4
20260502184027 46 267 4.0 8.0 0.00 0.00 0.00 63 1019.4
20260502183337 45 243 5.0 8.0 0.00 0.00 0.00 64 1019.5
20260502182320 45 259 5.0 8.0 0.00 0.00 0.00 64 1019.5
20260502181838 45 259 6.0 8.0 0.00 0.00 0.00 64 1019.5
20260502181330 45 271 5.0 9.0 0.00 0.00 0.00 65 1019.5
20260502180822 45 277 6.0 9.0 0.00 0.00 0.00 64 1019.6
20260502180316 44 269 6.0 8.0 0.00 0.00 0.00 64 1019.7
20260502170333 44 275 6.0 8.0 0.00 0.00 0.00 66 1019.8
20260502164332 46 254 4.0 8.0 0.00 0.00 0.00 63 1019.8
20260502163819 47 265 3.0 5.0 0.00 0.00 0.00 65 1019.9
20260502163315 46 268 3.0 7.0 0.00 0.00 0.00 64 1019.9
20260502162831 46 271 3.0 7.0 0.00 0.00 0.00 64 1019.8
20260502162328 46 265 4.0 7.0 0.00 0.00 0.00 64 1019.9
20260502161826 46 275 4.0 7.0 0.00 0.00 0.00 64 1019.9
20260502161323 46 280 4.0 7.0 0.00 0.00 0.00 64 1019.9
20260502160838 45 270 3.0 7.0 0.00 0.00 0.00 64 1019.9
20260502160323 45 277 3.0 7.0 0.00 0.00 0.00 63 1020.1
20260502152322 44 266 2.0 7.0 0.00 0.00 0.00 66 1019.9
20260502151905 43 289 3.0 7.0 0.00 0.00 0.00 65 1019.9
20260502151349 43 296 3.0 4.0 0.00 0.00 0.00 66 1020.0
20260502150820 43 261 3.0 5.0 0.00 0.00 0.00 66 1020.0
20260502150335 43 272 2.0 5.0 0.00 0.00 0.00 66 1020.1
20260502130347 40 300 3.0 6.0 0.00 0.00 0.00 68 1020.2
20260502123342 40 299 2.0 4.0 0.00 0.00 0.00 69 1020.2
20260502122829 40 298 2.0 3.0 0.00 0.00 0.00 69 1020.2
20260502122326 40 315 2.0 4.0 0.00 0.00 0.00 69 1020.3
20260502121821 40 269 2.0 4.0 0.00 0.00 0.00 68 1020.2
20260502121321 40 275 2.0 4.0 0.00 0.00 0.00 68 1020.2
20260502120836 39 291 2.0 4.0 0.00 0.00 0.00 67 1020.1
20260502120351 39 313 2.0 4.0 0.00 0.00 0.00 66 1020.1
20260502115821 39 287 2.0 4.0 0.00 0.00 0.00 65 1020.1
20260502115402 39 285 2.0 3.0 0.00 0.00 0.00 65 1020.0
20260502114829 39 267 2.0 3.0 0.00 0.00 0.00 66 1020.0
20260502114323 39 284 1.0 3.0 0.00 0.00 0.00 66 1019.9
20260502113819 39 281 1.0 3.0 0.00 0.00 0.00 67 1019.8
20260502113334 39 223 1.0 2.0 0.00 0.00 0.00 67 1019.9
20260502112840 39 290 0.0 3.0 0.00 0.00 0.00 68 1019.9
20260502112346 39 337 0.0 3.0 0.00 0.00 0.00 68 1019.8
20260502111831 39 339 0.0 1.0 0.00 0.00 0.00 67 1019.8
20260502111331 39 335 0.0 2.0 0.00 0.00 0.00 67 1019.7
20260502110844 39 336 0.0 2.0 0.00 0.00 0.00 67 1019.7
20260502110340 39 349 0.0 2.0 0.00 0.00 0.00 67 1019.7
20260502105829 39 329 1.0 2.0 0.00 0.00 0.00 67 1019.7
20260502105326 39 321 1.0 2.0 0.00 0.00 0.00 67 1019.8
20260502104832 39 283 1.0 2.0 0.00 0.00 0.00 67 1019.9
20260502104330 39 309 1.0 2.0 0.00 0.00 0.00 67 1019.8
20260502103824 39 296 1.0 2.0 0.00 0.00 0.00 67 1019.9
20260502103318 39 302 1.0 3.0 0.00 0.00 0.00 67 1019.8
20260502102816 39 275 1.0 3.0 0.00 0.00 0.00 68 1019.8
20260502102330 39 321 0.0 2.0 0.00 0.00 0.00 68 1019.8
20260502101827 39 320 1.0 2.0 0.00 0.00 0.00 68 1019.8
20260502101344 39 299 1.0 3.0 0.00 0.00 0.00 68 1019.8
20260502100829 39 309 0.0 3.0 0.00 0.00 0.00 68 1019.8
20260502100326 39 349 1.0 3.0 0.00 0.00 0.00 68 1019.7
20260502091318 38 329 0.0 3.0 0.00 0.00 0.00 70 1019.6
20260502090835 38 329 1.0 3.0 0.00 0.00 0.00 70 1019.6
20260502090327 38 319 0.0 2.0 0.00 0.00 0.00 70 1019.5
20260502071320 39 292 0.0 2.0 0.00 0.00 0.00 70 1019.4
20260502070837 39 331 1.0 2.0 0.00 0.00 0.00 70 1019.5
20260502070327 39 29 0.0 2.0 0.00 0.00 0.00 70 1019.5
20260502065851 39 27 0.0 2.0 0.00 0.00 0.00 70 1019.5
20260502065332 39 322 1.0 2.0 0.00 0.00 0.00 70 1019.6
20260502064846 39 22 0.0 2.0 0.00 0.00 0.00 69 1019.6
20260502064357 39 330 0.0 2.0 0.00 0.00 0.00 69 1019.6
20260502063825 39 325 0.0 2.0 0.00 0.00 0.00 69 1019.7
20260502063322 39 335 0.0 2.0 0.00 0.00 0.00 69 1019.7
20260502062820 39 28 1.0 2.0 0.00 0.00 0.00 69 1019.7
20260502062337 39 342 1.0 2.0 0.00 0.00 0.00 68 1019.7
20260502061833 40 38 0.0 3.0 0.00 0.00 0.00 68 1019.7
20260502061341 40 347 0.0 3.0 0.00 0.00 0.00 68 1019.7
20260502060817 40 25 1.0 3.0 0.00 0.00 0.00 68 1019.7
20260502060331 40 5 1.0 3.0 0.00 0.00 0.00 68 1019.7
20260502055844 40 13 0.0 3.0 0.00 0.00 0.00 68 1019.7
20260502055340 40 13 0.0 3.0 0.00 0.00 0.00 68 1019.7
20260502054826 40 321 1.0 3.0 0.00 0.00 0.00 68 1019.6
20260502054321 40 327 1.0 4.0 0.00 0.00 0.00 68 1019.5
20260502053835 40 11 1.0 4.0 0.00 0.00 0.00 68 1019.6
20260502053329 40 350 1.0 4.0 0.00 0.00 0.00 68 1019.6
20260502052818 40 355 0.0 3.0 0.00 0.00 0.00 68 1019.5
20260502052336 40 10 1.0 3.0 0.00 0.00 0.00 68 1019.6
20260502051845 40 322 1.0 4.0 0.00 0.00 0.00 68 1019.5
20260502051316 40 5 1.0 4.0 0.00 0.00 0.00 68 1019.5
20260502050832 40 334 1.0 4.0 0.00 0.00 0.00 68 1019.5
20260502050337 40 332 1.0 5.0 0.00 0.00 0.00 68 1019.5